O3b星座 FM14星 (O3B FM14)

导读

O3B FM14是O3b中地球轨道通信卫星星座的一员,由阿莱尼亚宇航公司制造,于北京时间2018年3月9日8时,搭乘联盟ST-B火箭从法属圭亚那航天中心发射升空。它运行在轨道高度约7825km的赤道中地球轨道,设计使用寿命10年,单星重量约700kg。旨在为偏远地区、海洋船舶等提供低延迟高速互联网接入服务,助力缩小全球数字鸿沟,目前已超期服役,持续为全球网络覆盖贡献力量。

基本信息
目录编号:
43233
目录名称:
O3B FM14
国际标识:
2018-024C
轨道中心:
EARTH
卫星名称:
O3b星座 FM14星
卫星全名:
O3b星座 FM14星 (O3B FM14)
卫星状态:
在轨 (已飞行3017 天)
发射日期:
2018-03-09 UTC
国别 :
(O3B)
星等 :
--
轨道信息
数据来源 国际轨道数据 AOE轨道数据
星历时间 2026-06-12T07:43:52+0800
18小时前
查看轨道信息
2026-06-12T11:00:00+0800
15小时前
查看轨道信息
半长轴 14444.026km 14444.026km
偏心率 0.0002891 0.0002897
轨道倾角 0.049° 0.049°
近地点辐角 73.193° 74.278°
升交点赤经 7.697° 7.606°
平近点角 279.145° 163.457°
近地点 8061.713km 8061.704km
远地点 8070.065km 8070.074km
周期 287.933分钟 287.933分钟
每日圈数 5.001156 5.001156
详细信息
平衡模式:
三轴稳定
覆盖范围:
全球
运营商:
欧洲卫星公司
运营商所在国:
卢森堡
制造商(研发单位):
阿莱尼亚宇航公司
制造商所在国:
意大利
使用方式:
暂无
卫星简介
O3b卫星星座分为O3b FM卫星星座和O3b mPOWER卫星星座,前者是由阿莱尼亚宇航公司制造的第一代O3b卫星星座,后者是由波音公司制造的第二代O3b卫星星座。O3b卫星初始星座运行于赤道圆轨道,轨道高度8062公里,能够覆盖全球南北纬45°之间所有地方,在南、北纬45°~62°范围内也能提供一定的服务。该卫星仍在工作。
2D轨道图
3D轨道图
轨道高度分析图
轨道倾角分析图
轨道综合分析图
查看轨道综合分析图